982  
ASUS45 KTFX 172110  
RWRMT  
MONTANA REGIONAL WEATHER ROUNDUP  
NATIONAL WEATHER SERVICE GREAT FALLS MT  
200 PM MST MON FEB 17 2020  
 
NOTE: "FAIR" INDICATES FEW OR NO CLOUDS BELOW 12,000 FEET WITH NO  
SIGNIFICANT WEATHER AND/OR S TO VISIBILITY
.  
 
MTZ001>007-043-172200-  
WEST OF THE DIVIDE  
 
CITY SKY/WX TMP DP RH WIND PRES REMARKS
 
KALISPELL PTSUNNY 33 23 66 NW8G16 30.09R WCI 26  
MISSOULA CLOUDY 36 23 59 NW9 30.11S WCI 29  
BUTTE MIX PCPN 28 11 48 NW18 29.99F WCI 15  
ANACONDA N/A 27 18 69 W7G20 30.01R WCI 19  
DEER LODGE N/A 27 21 80 NW8 30.05F VSB 1/2 WCI 18  
HAMILTON MOSUNNY 36 16 44 VRB5G12 30.10S  
LIBBY N/A 36 21 55 SW3 30.12S  
MULLAN PASS LGT SNOW 23 17 78 VRB5 30.02S  
RONAN N/A 34 23 64 S8 30.09F WCI 27  

 
 
MTZ008-052>055-172200-  
SOUTHWEST MONTANA  
 
CITY SKY/WX TMP DP RH WIND PRES REMARKS
 
BOZEMAN FAIR 31 17 56 NE6 30.03F WCI 25  
DILLON FAIR 25 13 60 SW14 30.01S WCI 13  
ENNIS PTSUNNY 27 12 54 S10 30.04F WCI 17  
W YELLOWSTONE FAIR 18 12 79 SW15 29.97S HAZE WCI 3  

 
 
MTZ009-010-012-014-046-048-049-054-172200-  
EAST SLOPES AND CENTRAL MONTANA  
 
CITY SKY/WX TMP DP RH WIND PRES REMARKS
 
CUT BANK FAIR 32 14 47 N24 30.00R WCI 19  
GREAT FALLS FLURRIES 33 16 49 W7 29.99R WCI 27  
HELENA PTSUNNY 34 17 50 W10 30.02S WCI 26  
MALMSTROM AFB PTSUNNY 35 10 35 NW7 30.00S WCI 29  
AUGUSTA PTSUNNY 31 14 48 N17 29.97S WCI 20  
BOWMANS CORNER FLURRIES 31 13 46 N17 29.96S WCI 20  
CHOTEAU N/A 34 12 40 NW15G22 29.99R WCI 24  
FAIRFIELD PTSUNNY 35 7 31 N14 29.98S WCI 26  
POWER PTSUNNY 35 10 36 NW14G22 29.99R WCI 25  
ULM FAIR 38 13 37 W17 30.00S WCI 28  
WHITE SULPHUR N/A 27 14 59 N8 29.97R WCI 18  

 
 
MTZ011-013-016-021-045-047-050-051-172200-  
NORTH CENTRAL MONTANA  
 
CITY SKY/WX TMP DP RH WIND PRES REMARKS
 
HAVRE CLOUDY 35 24 64 VRB3 30.02F  
LEWISTOWN FAIR 27 18 69 W7 29.98S WCI 19  
CHINOOK N/A 32 27 80 CALM 30.05R  
DENTON FAIR 33 16 48 W6 29.97R WCI 28  
GEYSER FAIR 28 17 63 CALM 29.98F  
GRASS RANGE FAIR 32 16 50 W13 29.96S WCI 23  
JUDITH GAP FAIR 26 14 62 E5 29.96S  
N BAR RANCH PTSUNNY 30 16 55 NW10 29.99R WCI 21  
ROY FAIR 33 20 60 W12 29.98S WCI 24  
STANFORD FAIR 26 16 67 NW3 29.98R  
WINIFRED FLURRIES 31 19 58 W10 29.98S WCI 23  

 
 
MTZ017>020-022>027-061-062-172200-  
NORTHEAST MONTANA  
 
CITY SKY/WX TMP DP RH WIND PRES REMARKS
 
GLASGOW PTSUNNY 30 19 63 CALM 30.05S  
CIRCLE N/A 32 21 64 NW7 30.03 WCI 26  
CULBERTSON N/A 28 19 69 NW10 30.06R WCI 19  
GLENDIVE FAIR 33 20 58 NW9 30.05S WCI 25  
JORDAN N/A 38 23 55 W10 30.02F WCI 31  
MALTA MOSUNNY 34 25 69 CALM 30.03S  
POPLAR N/A 30 18 59 NW7 30.06S WCI 23  
SIDNEY CLOUDY 33 22 63 NW10 30.06S WCI 25  
WOLF POINT FAIR 30 18 60 NW7 30.07F WCI 23  

 
 
MTZ028>42-056>058-172200-  
SOUTHCENTRAL AND SOUTHEAST MONTANA  
 
CITY SKY/WX TMP DP RH WIND PRES REMARKS
 
BAKER FAIR 32 22 66 W8 30.03S WCI 25  
BIG TIMBER SUNNY 32 14 47 W21 29.99S WCI 20  
BILLINGS FLURRIES 32 23 69 SE7 30.01S WCI 26  
FORSYTH N/A 36 21 55 W8 30.04F WCI 29  
HARDIN CLOUDY 34 28 80 SW6 30.04 WCI 29  
HARLOWTON FAIR 35 11 36 W17 29.97S WCI 24  
LAUREL N/A 37 16 41 SW7G14 30.02S  
LIVINGSTON CLOUDY 30 14 51 SW21 29.99S WCI 17  
MILES CITY FAIR 33 23 66 W8 30.05S WCI 26  

 
 
REGIONAL REPORTS...DAKOTAS/MN  
 
CITY SKY/WX TMP DP RH WIND PRES REMARKS
 
WILLISTON CLOUDY 22 16 78 NW13 30.03S WCI 10  
MINOT CLOUDY 24 16 71 NW17 30.00R WCI 11  
DICKINSON PTSUNNY 31 19 61 NW21G29 29.98S WCI 18  
BEACH FAIR 30 23 74 NW12 30.03S WCI 21  
CROSBY FLURRIES 18 12 79 NW15 30.07R WCI 3  
HETTINGER PTSUNNY 31 21 66 W16 30.02S WCI 20  
TIOGA CLOUDY 19 18 93 NW17 30.03R WCI 4  
WATFORD CITY PTSUNNY 28 21 74 NW13G21 30.03S WCI 18  
BISMARCK CLOUDY 29 21 72 NW12G23 30.01F WCI 19  
GRAND FORKS CLOUDY 18 11 74 N13 30.01R WCI 5  
FARGO CLOUDY 24 18 77 N12 29.99R WCI 13  
BUFFALO SD N/A 33 20 58 NW16 29.99S WCI 23  
RAPID CITY CLOUDY 31 22 69 N18 30.00R WCI 19  
INTL FALLS PTSUNNY 22 11 62 NW9 29.89S WCI 12  
DULUTH FLURRIES 25 16 68 CALM 29.85F  
MINNEAPOLIS CLOUDY 35 26 69 SE7 29.84F WCI 29  

 
 
REGIONAL REPORTS...WY/ID/WA  
 
CITY SKY/WX TMP DP RH WIND PRES REMARKS
 
BUFFALO WY LGT SNOW 25 19 78 N7 29.96F WCI 17  
CODY PTSUNNY 30 15 53 CALM 29.98F  
GILLETTE FAIR 30 19 63 NW8 29.98F WCI 22  
POWELL FAIR 32 12 43 CALM 29.97S  
SHERIDAN LGT SNOW 28 23 81 NW9 30.02S VSB 1 WCI 19  
YELLOWSTONE LA N/A 17 7 64 W8G21 29.93S WCI 7  
BOISE FAIR 39 24 55 NW13G22 30.22F WCI 31  
COUER D'ALENE PTSUNNY 39 22 50 W14 30.21S WCI 31  
IDAHO FALLS FAIR 28 18 66 SW13 30.09F WCI 17  
SALMON FAIR 25 11 55 CALM 30.13S  
SPOKANE FAIR 39 15 37 NW6 30.21F  
SEATTLE PTSUNNY 46 34 62 W6 30.40F  

 
 
REGIONAL REPORTS...ALBERTA  
 
CITY SKY/WX TMP DP RH WIND PRES REMARKS
 
CALGARY MOSUNNY 10 3 72 NE7 30.11R WCI 0  
CARDSTON N/A 16 14 93 N12 N/A WCI 3  
CROWSNEST PASS N/A 34 10 37 W10G18 N/A WCI 26  
DEL BONITA N/A 14 14 100 N20 N/A WCI -3  
EDMONTON FLURRIES -6 -18 54 N14 30.31R WCI -26  
FORT MCMURRAY SUNNY -8 -18 59 NW8 30.39S WCI -23  
HIGH LEVEL SUNNY -8 -18 59 SE2 30.46S  
LETHBRIDGE LGT SNOW 12 9 85 N13 30.15R FOG WCI -3  
LLOYDMINSTER PTSUNNY -4 -15 59 N15 30.22R WCI -25  
MEDICINE HAT LGT SNOW 12 7 79 N16 30.16R WCI -4  
MILK RIVER N/A 14 12 92 N28G33 N/A WCI -6  
ONEFOUR N/A 21 18 86 N7 N/A WCI 13  
PEACE RIVER MOSUNNY -11 -20 64 SW8 30.41S WCI -28  
PINCHER CREEK PTSUNNY 18 10 73 MISG 30.06R  
RAYMOND N/A 12 10 92 N12 N/A WCI -2  
WATERTON GATE N/A 16 12 86 N13G18 N/A WCI 2  
FORT SMITH NWT MOSUNNY -11 -22 58 W10 30.40R WCI -30  

 
 
REGIONAL REPORTS...SASKATCHEWAN  
 
CITY SKY/WX TMP DP RH WIND PRES REMARKS
 
ASSINIBOIA N/A 16 9 73 NW9 N/A WCI 4  
CORONACH N/A 19 12 73 W9 N/A WCI 9  
CYPRESS HILLS N/A 9 5 85 N10 N/A WCI -6  
ESTEVAN FLURRIES 16 9 73 NW16G23 30.05R WCI 0  
LA RONGE N/A -6 -17 59 NW10 N/A WCI -23  
MOOSE JAW N/A 16 7 67 NW14G20 N/A WCI 1  
PRINCE ALBERT LGT SNOW 5 -2 72 NW16 30.17R DRFTSNOWWCI -14  
REGINA FLURRIES 14 7 73 NW14 30.07R WCI -1  
ROCKGLEN N/A 18 10 73 W6 N/A WCI 9  
SASKATOON PTSUNNY 3 -4 72 NW13 30.16R WCI -14  
SWIFT CURRENT LGT SNOW 10 7 85 NW15 30.05 WCI -6  
VAL MARIE N/A 21 19 93 CALM N/A  

 
 
 
CLICK HERE TO GO TO PREVIOUS BULLETINS.

The Nexlab MT Page Main Text Page